Regional Weather Roundup
Issued by NWS Midland/Odessa, TX

Skip options and go directly to product.
Home | Oldest Version | Previous Version | Current Version | All | Graphics & Text | Save Text | Print | Product List | Glossary On

Skip product version selection by date and time.   
125
ASUS44 KMAF 231710
RWRMAF
MIDLAND AREA WEATHER ROUNDUP
NATIONAL WEATHER SERVICE MIDLAND TX
1200 PM CDT THU OCT 23 2014

...IN SOUTHWEST TEXAS AND SOUTHEAST NEW MEXICO...

CITY           SKY/WX    TMP DP  RH WIND       PRES   REMARKS
ALPINE         SUNNY     70  57  63 W6        30.30S
ANDREWS        CLOUDY    59  59 100 MISG      30.20R FOG
ARTESIA        NOT AVBL
BIG SPRING     CLOUDY    65  60  83 S8        30.20S
CARLSBAD       CLOUDY    61  57  87 CALM      30.20R FOG
DRYDEN           N/A     65  60  84 S3        30.17S
FORT STOCKTON  SUNNY     73  59  61 CALM      30.18S
GUAD PASS      SUNNY     65  56  72 SW14      30.31R
HOBBS          CLOUDY    57  57 100 SW3       30.22R FOG
MARFA          SUNNY     66  57  72 SE6       30.29S
MIDLAND AIRPK  CLOUDY    65  60  83 SW3       30.19S
MIDLAND INTL   MOSUNNY   67  59  75 CALM      30.18S
ODESSA         CLOUDY    62  59  90 SW5       30.19S FOG
PECOS          CLOUDY    59  58  97 CALM      30.18S FOG
PRESIDIO       FAIR      72  59  65 CALM      30.20S
SEMINOLE       CLOUDY    59  59  99 CALM      30.21R FOG
SNYDER         CLOUDY    62  59  90 S8        30.19R
WINK           CLOUDY    63  60  90 E3        30.17S
$$
...OTHER STATIONS IN TEXAS...

CITY           SKY/WX    TMP DP  RH WIND       PRES   REMARKS
ABILENE        MOSUNNY   75  58  55 SW10      30.16S
AMARILLO       SUNNY     69  58  67 SW8       30.15F
AUSTIN         MOSUNNY   75  60  59 CALM      30.15S
BROWNSVILLE    NOT AVBL
CORPUS CHRISTI PTSUNNY   79  65  62 NE9       30.12R
DALLAS FTW     PTSUNNY   69  55  60 S9        30.16F
DEL RIO        CLOUDY    71  66  84 SE7       30.16R
EL PASO        SUNNY     69  56  62 NW3       30.24R
HOUSTON INT    CLOUDY    70  55  59 VRB3      30.15S
LUBBOCK        CLOUDY    58  56  93 W8        30.18S FOG
SAN ANGELO     CLOUDY    73  61  65 S9        30.17S
SAN ANTONIO    MOSUNNY   78  59  51 VRB3      30.16R
WACO           CLOUDY    73  56  54 SE5       30.16F
WICHITA FALLS  NOT AVBL
$$
...OTHER LOCATIONS IN NEW MEXICO...

CITY           SKY/WX    TMP DP  RH WIND       PRES   REMARKS
ALAMAGORDO     NOT AVBL
ALBUQUERQUE    MOSUNNY   62  45  53 CALM      30.30S
CANNON AFB     SUNNY     71  52  51 NW14      30.19F
CLOVIS         SUNNY     70  52  52 NW10      30.21F
HOLLOMAN AFB   SUNNY     70  52  52 CALM      30.23F
ROSWELL        PTSUNNY   60  56  86 CALM      30.20S FOG
RUIDOSO        SUNNY     63  45  51 NW6       30.37R
SANTA FE       SUNNY     60  34  37 N9        30.32S
TRUTH OR CONSE SUNNY     67  49  52 VRB3      30.26
TUCUMCARI      SUNNY     69  47  45 W6        30.16F
$$

USA.gov is the U.S. government's official web portal to all federal, state and local government web resources and services.